Tracking 29089 objects as of 12-Jul-2024
HD Live streaming from Space Station
objects crossing your sky now

ZHEDA PIXING 3A

Track ZHEDA PIXING 3A now!
10-day predictions


NORAD ID: 45795
Int'l Code: 2020-039B
Perigee: 381.4 km
Apogee: 388.2 km
Inclination: 97.5 °
Period: 92.1 minutes
Semi major axis: 6755 km
RCS: Unknown
Launch date: June 17, 2020
Source: People's Republic of China (PRC)
Launch site: Jiuquan Satellite Launch Center, China (JSC)
Your satellite tracking list
Your tracking list is empty




NASA's NSSDC Master Catalog

Two Line Element Set (TLE):
1 45795U 20039B   24194.14519354  .00061513  00000-0  66369-3 0  9995
2 45795  97.4695 334.6333 0005078  31.3068 328.8492 15.63456956227487
Source of the keplerian elements: AFSPC